Le nostre stazioni meteo in Italia

Pubblicità
Il mio iltempo24.it
Siracusa, Italia (16464): Temperatura & dewpoint: 23.06.2017 00:00:00 - 29.06.2017 00:00:00 (CEST)Siracusa, Italia (16464): velocità del vento: 23.06.2017 00:00:00 - 29.06.2017 00:00:00 (CEST)Siracusa, Italia (16464): direzione del vento: 23.06.2017 00:00:00 - 29.06.2017 00:00:00 (CEST)Siracusa, Italia (16464): reduced air pressure: 23.06.2017 00:00:00 - 29.06.2017 00:00:00 (CEST)Siracusa, Italia (16464): precipitazioni: 23.06.2017 00:00:00 - 29.06.2017 00:00:00 (CEST)
Data & Tempo tt [°C] td [°C] ff [km/h] ff [kn] dd ppp [hPa] rr [mm]
29.06.2017 00:00:00 28,4 18,4 15 8 S 1009,5 -
28.06.2017 23:00:00 27,6 21,3 9 5 SSO 1009,6 -
28.06.2017 22:00:00 28,9 21,1 15 8 SSO 1009,3 -
28.06.2017 21:00:00 29,5 20,3 15 8 SSO 1009,0 -
28.06.2017 20:00:00 28,9 22,3 13 7 SSO 1008,8 0,0
28.06.2017 19:00:00 29,1 22,5 13 7 S 1009,3 -
28.06.2017 18:00:00 31,0 22,3 4 2 SO 1009,4 -
28.06.2017 17:00:00 31,6 23,1 24 13 S 1009,2 -
28.06.2017 16:00:00 31,2 23,3 24 13 S 1009,6 -
28.06.2017 15:00:00 31,6 22,9 26 14 S 1009,8 -
28.06.2017 14:00:00 34,3 20,7 16 9 SSE 1010,1 0,0
28.06.2017 13:00:00 - - - - - - -
28.06.2017 12:00:00 31,7 19,3 8 4 SSE 1011,4 -
28.06.2017 11:00:00 32,2 20,8 5 3 SE 1011,0 -
28.06.2017 10:00:00 31,3 20,5 4 2 NE 1011,0 -
28.06.2017 09:00:00 28,3 15,5 4 2 SSO 1011,5 -
28.06.2017 08:00:00 25,6 14,3 0 0 N 1011,4 0,0
28.06.2017 07:00:00 22,8 11,8 2 1 ONO 1011,2 -
28.06.2017 06:00:00 22,5 11,8 2 1 OSO 1010,7 -
28.06.2017 05:00:00 22,4 10,5 4 2 NO 1010,7 -
28.06.2017 04:00:00 22,9 9,6 2 1 NO 1011,1 -
28.06.2017 03:00:00 23,6 10,6 2 1 ONO 1011,2 -
28.06.2017 02:00:00 24,4 13,5 2 1 SO 1011,5 0,0
28.06.2017 01:00:00 25,6 11,3 2 1 OSO 1011,6 -
28.06.2017 00:00:00 26,0 11,3 4 2 OSO 1012,1 -
27.06.2017 23:00:00 27,2 12,4 4 2 SO 1012,0 -
27.06.2017 22:00:00 28,4 12,7 4 2 SSO 1011,7 -
27.06.2017 21:00:00 30,9 12,8 8 4 SSO 1011,3 -
27.06.2017 20:00:00 30,3 20,2 5 3 E 1011,2 0,0
27.06.2017 19:00:00 33,6 12,1 5 3 SE 1011,1 -
27.06.2017 18:00:00 34,6 17,4 18 10 SSO 1010,5 -
27.06.2017 17:00:00 36,1 15,3 8 4 E 1010,7 -
27.06.2017 16:00:00 35,0 19,4 26 14 S 1011,0 -
27.06.2017 15:00:00 34,5 19,4 24 13 SSO 1011,5 -
27.06.2017 14:00:00 31,1 22,9 5 3 SO 1012,1 0,0
27.06.2017 13:00:00 30,8 20,4 15 8 SSE 1012,8 -
27.06.2017 12:00:00 30,6 20,2 15 8 S 1013,0 -
27.06.2017 11:00:00 29,7 19,9 15 8 S 1013,4 -
27.06.2017 10:00:00 30,0 17,8 5 3 SSE 1013,4 -
27.06.2017 09:00:00 28,4 17,2 2 1 S 1013,6 -
27.06.2017 08:00:00 25,3 16,9 4 2 SO 1013,8 0,0
27.06.2017 07:00:00 22,7 14,7 4 2 ONO 1013,3 -
27.06.2017 06:00:00 22,3 14,1 2 1 E 1013,0 -
27.06.2017 05:00:00 22,8 14,0 2 1 NO 1012,8 -
27.06.2017 04:00:00 23,6 14,2 5 3 ONO 1012,8 -
27.06.2017 03:00:00 25,9 18,3 2 1 SO 1013,0 -
27.06.2017 02:00:00 25,4 16,7 0 0 N 1013,2 0,0
27.06.2017 01:00:00 25,6 16,1 4 2 ONO 1013,3 -
27.06.2017 00:00:00 25,9 15,2 2 1 NO 1013,6 -
26.06.2017 23:00:00 27,7 16,6 0 0 N 1013,4 -
26.06.2017 22:00:00 28,6 20,0 0 0 N 1013,1 -
26.06.2017 21:00:00 29,0 21,2 4 2 S 1012,6 -
26.06.2017 20:00:00 30,3 21,1 5 3 S 1012,4 0,0
26.06.2017 19:00:00 31,6 18,2 5 3 S 1012,5 -
26.06.2017 18:00:00 31,9 17,4 9 5 S 1012,3 -
26.06.2017 17:00:00 32,0 17,1 9 5 S 1012,7 -
26.06.2017 16:00:00 31,5 19,8 9 5 S 1013,0 -
26.06.2017 15:00:00 31,3 18,6 9 5 SSE 1013,2 -
26.06.2017 14:00:00 31,1 18,1 5 3 ESE 1013,5 0,0
26.06.2017 13:00:00 30,7 17,4 8 4 E 1013,7 -
26.06.2017 12:00:00 30,4 16,0 9 5 E 1013,5 -
26.06.2017 11:00:00 29,5 16,6 8 4 ONO 1013,5 -
26.06.2017 10:00:00 28,2 19,1 5 3 E 1013,5 -
26.06.2017 09:00:00 26,9 18,4 2 1 S 1013,4 -
26.06.2017 08:00:00 24,8 16,4 2 1 N 1013,0 0,0
26.06.2017 07:00:00 21,3 12,7 0 0 N 1012,8 -
26.06.2017 06:00:00 20,1 11,8 4 2 ONO 1012,9 -
26.06.2017 05:00:00 20,9 12,5 2 1 ONO 1013,2 -
26.06.2017 04:00:00 21,4 11,1 4 2 ONO 1013,2 -
26.06.2017 03:00:00 22,9 14,9 0 0 N 1013,5 -
26.06.2017 02:00:00 23,1 13,8 5 3 ONO 1013,7 0,0
26.06.2017 01:00:00 25,1 17,5 2 1 O 1013,8 -
26.06.2017 00:00:00 26,3 18,6 5 3 NNO 1013,8 -
25.06.2017 23:00:00 27,1 18,9 8 4 NNO 1013,8 -
25.06.2017 22:00:00 27,9 17,1 5 3 NNO 1013,8 -
25.06.2017 21:00:00 27,8 17,9 9 5 N 1013,1 -
25.06.2017 20:00:00 28,4 20,1 9 5 N 1013,1 0,0
25.06.2017 19:00:00 28,2 21,7 8 4 NNE 1013,0 -
25.06.2017 18:00:00 28,8 22,7 13 7 NNE 1013,1 -
25.06.2017 17:00:00 30,9 22,2 5 3 ESE 1013,3 -
25.06.2017 16:00:00 30,4 22,0 11 6 SE 1013,8 -
25.06.2017 15:00:00 30,1 23,0 15 8 S 1014,4 -
25.06.2017 14:00:00 29,3 23,4 11 6 SSE 1014,7 0,0
25.06.2017 13:00:00 28,9 22,8 11 6 SE 1015,1 -
25.06.2017 12:00:00 27,9 20,1 11 6 SE 1015,5 -
25.06.2017 11:00:00 27,7 20,7 8 4 SE 1015,6 -
25.06.2017 10:00:00 26,9 20,4 8 4 E 1015,7 -
25.06.2017 09:00:00 27,6 19,1 5 3 ESE 1015,7 -
25.06.2017 08:00:00 24,7 17,4 0 0 N 1015,7 0,0
25.06.2017 07:00:00 21,6 15,1 2 1 ONO 1016,0 -
25.06.2017 06:00:00 20,3 12,9 4 2 NO 1015,9 -
25.06.2017 05:00:00 21,6 13,2 2 1 NO 1015,7 -
25.06.2017 04:00:00 22,4 14,9 2 1 SSE 1015,7 -
25.06.2017 03:00:00 22,4 12,3 2 1 ONO 1015,7 -
25.06.2017 02:00:00 22,8 12,9 2 1 NO 1016,2 0,0
25.06.2017 01:00:00 24,5 14,2 4 2 ONO 1016,6 -
25.06.2017 00:00:00 25,8 16,0 2 1 NO 1016,8 -
24.06.2017 23:00:00 26,8 16,9 11 6 N 1016,9 -
24.06.2017 22:00:00 27,3 16,8 15 8 N 1016,6 -
24.06.2017 21:00:00 27,7 16,3 8 4 N 1016,2 -
24.06.2017 20:00:00 28,9 18,0 4 2 SE 1016,0 0,0
24.06.2017 19:00:00 29,4 22,6 9 5 SSE 1015,9 -
24.06.2017 18:00:00 27,6 22,3 8 4 E 1016,0 -
24.06.2017 17:00:00 27,5 22,2 13 7 E 1016,3 -
24.06.2017 16:00:00 28,8 21,8 9 5 ESE 1016,9 -
24.06.2017 15:00:00 29,6 18,0 13 7 SE 1017,2 -
24.06.2017 14:00:00 30,2 20,4 13 7 SSE 1017,4 0,0
24.06.2017 13:00:00 30,4 20,3 13 7 SSE 1017,3 -
24.06.2017 12:00:00 30,0 18,4 8 4 SSE 1017,6 -
24.06.2017 11:00:00 29,1 17,6 5 3 S 1017,8 -
24.06.2017 10:00:00 28,0 18,6 8 4 SSE 1018,0 -
24.06.2017 09:00:00 - - - - - - -
24.06.2017 08:00:00 - - - - - - -
24.06.2017 07:00:00 22,1 17,4 0 0 N 1017,9 -
24.06.2017 06:00:00 20,6 15,1 4 2 ONO 1017,6 -
24.06.2017 05:00:00 20,5 15,2 4 2 NO 1017,3 -
24.06.2017 04:00:00 21,9 17,0 0 0 N 1017,6 -
24.06.2017 03:00:00 22,2 16,6 4 2 NO 1017,9 -
24.06.2017 02:00:00 23,9 18,7 2 1 ONO 1018,3 0,0
24.06.2017 01:00:00 25,0 20,4 4 2 N 1018,5 -
24.06.2017 00:00:00 25,3 20,7 11 6 N 1018,6 -
23.06.2017 23:00:00 25,4 20,6 2 1 SO 1018,6 -
23.06.2017 22:00:00 25,6 19,7 2 1 N 1018,5 -
23.06.2017 21:00:00 26,8 20,6 5 3 ESE 1018,0 -
23.06.2017 20:00:00 27,8 21,3 8 4 S 1017,6 0,0
23.06.2017 19:00:00 - - - - - - -
23.06.2017 18:00:00 27,8 22,7 21 11 N 1017,7 -
23.06.2017 17:00:00 29,0 22,0 16 9 S 1018,1 -
23.06.2017 16:00:00 29,0 22,4 16 9 S 1018,6 -
23.06.2017 15:00:00 28,5 21,0 11 6 SE 1019,1 -
23.06.2017 14:00:00 27,3 21,8 11 6 ESE 1019,4 0,0
23.06.2017 13:00:00 27,7 21,2 8 4 ESE 1019,8 -
23.06.2017 12:00:00 26,6 19,9 9 5 E 1019,9 -
23.06.2017 11:00:00 26,2 20,0 8 4 E 1019,8 -
23.06.2017 10:00:00 26,1 20,8 5 3 E 1019,6 -
23.06.2017 09:00:00 25,8 19,6 5 3 SSE 1019,4 -
23.06.2017 08:00:00 - - - - - - -
23.06.2017 07:00:00 21,6 16,3 2 1 NO 1019,1 -
23.06.2017 06:00:00 21,0 15,7 5 3 NO 1018,8 -
23.06.2017 05:00:00 23,5 20,2 5 3 N 1018,6 -
23.06.2017 04:00:00 23,8 19,9 2 1 NNE 1018,5 -
23.06.2017 03:00:00 23,7 18,3 0 0 N 1018,5 -
23.06.2017 02:00:00 24,4 19,6 5 3 NNO 1018,9 0,0
23.06.2017 01:00:00 24,6 18,0 4 2 NNO 1019,1 -
23.06.2017 00:00:00 24,8 17,9 4 2 N 1018,9 -

tt = Temperatura
td = dewpoint
ff = velocità del vento
dd = direzione del vento
ppp = reduced air pressure
rr = precipitazioni

Stazioni seguenti

WeatherPro
AMSI
MeteoEarth